Location: *
(50.5492°N, 7.7469°E)
Time: 11:16:20
(UTC+00:00)

SJ-6B - Visible Passes

Search period start: 29 January 2020 00:00
Search period end: 08 February 2020 00:00
Orbit: 509 x 583 km, 97.6° (Epoch: 28 January)

Date Brightness Start Highest point End Pass type
(mag) Time Alt. Az. Time Alt. Az. Time Alt. Az.
30 Jan 5.5 19:00:14 11° N 19:00:14 11° N 19:00:20 10° N visible
31 Jan 5.3 18:54:28 12° N 18:54:28 12° N 18:54:46 10° N visible
01 Feb 5.2 18:48:42 13° N 18:48:42 13° N 18:49:11 10° N visible
02 Feb 5.0 18:42:56 14° N 18:42:56 14° N 18:43:34 10° N visible
03 Feb 4.9 18:37:09 15° N 18:37:09 15° N 18:37:58 10° N visible
04 Feb 4.7 18:31:23 16° N 18:31:23 16° N 18:32:20 10° N visible
05 Feb 4.6 18:25:36 17° NNE 18:25:36 17° NNE 18:26:42 10° N visible
05 Feb 5.9 20:01:12 10° NW 20:01:12 10° NW 20:01:17 10° NW visible
06 Feb 4.5 18:19:48 17° NNE 18:19:48 17° NNE 18:21:04 10° N visible
06 Feb 5.7 19:55:25 12° NW 19:55:25 12° NW 19:55:50 10° NNW visible
07 Feb 4.5 18:14:01 17° NNE 18:14:01 17° NNE 18:15:24 10° N visible
07 Feb 5.5 19:49:38 14° NW 19:49:38 14° NW 19:50:21 10° NNW visible
